Harlan, IA

3:50 PM CST on December 15, 2019 (GMT -0600)
Harlan Municipal

Weather History for KHNR - October, 2019

Change the Weather History Date:

Wednesday, October 2, 2019

  Actual Average Record
Temperature  
Mean Temperature 52 °F -  
Max Temperature 55 °F 71 °F 94 °F (1953)
Min Temperature 48 °F 45 °F 23 °F (2003)
Degree Days  
Heating Degree Days 12    
Growing Degree Days 2 (Base 50)    
Moisture  
Dew Point 53 °F    
Average Humidity 100    
Maximum Humidity 100    
Minimum Humidity 94    
Precipitation  
Precipitation 0.11 in - - ()
Sea Level Pressure  
Sea Level Pressure 29.97 in    
Wind  
Wind Speed 8 mph ()    
Max Wind Speed 18 mph    
Max Gust Speed 26 mph    
Visibility 7.7 miles    
Events      
Averages and records for this station are not official NWS values.
T = Trace of Precipitation, MM = Missing Value Source: Averaged Metar Reports

Daily Weather History Graph

Daily Weather History Graph

Search for Another Location

Airport or City:

Astronomy

Oct. 02, 2019 Rise Set
Actual Time 7:19 AM CDT 7:01 PM CDT
Civil Twilight 6:51 AM CDT 7:29 PM CDT
Nautical Twilight 6:19 AM CDT 8:01 PM CDT
Astronomical Twilight 5:46 AM CDT 8:33 PM CDT
Moon 11:48 AM CDT (10/2) 9:53 PM CDT (10/2)
Length of Visible Light 12h 37m
Length of Day
11h 42m
Waxing Crescent, 20% of the Moon is Illuminated
Oct 2
Waxing Crescent
Oct 5
First Quarter
Oct 13
Full
Oct 21
Last Quarter
Oct 27
New

Hourly Weather History & Observations

Time (CDT) Temp. Dew Point Humidity Pressure Visibility Wind Dir Wind Speed Gust Speed Precip Events Conditions
12:15 AM 55.4 °F 55.4 °F 100% 29.91 in 3.0 mi North 9.2 mph 16.1 mph N/A   Mostly Cloudy
12:35 AM 55.4 °F 55.4 °F 100% 29.90 in 3.0 mi NNE 11.5 mph - N/A   Mostly Cloudy
12:55 AM 53.6 °F 53.6 °F 100% 29.92 in 4.0 mi North 9.2 mph 16.1 mph N/A   Mostly Cloudy
1:15 AM 53.6 °F 53.6 °F 100% 29.92 in 6.0 mi North 11.5 mph - N/A   Mostly Cloudy
1:35 AM 53.6 °F 53.6 °F 100% 29.93 in 10.0 mi North 6.9 mph 13.8 mph N/A   Overcast
1:55 AM 53.6 °F 53.6 °F 100% 29.93 in 9.0 mi North 11.5 mph - N/A   Overcast
2:15 AM 53.6 °F 53.6 °F 100% 29.94 in 10.0 mi North 10.4 mph 18.4 mph N/A   Overcast
2:35 AM 53.6 °F 53.6 °F 100% 29.95 in 10.0 mi North 10.4 mph - N/A   Overcast
2:55 AM 53.6 °F 53.6 °F 100% 29.95 in 10.0 mi North 8.1 mph - N/A   Overcast
3:15 AM - - N/A% 29.95 in 5.0 mi North 11.5 mph - N/A   Overcast
3:35 AM 51.8 °F 51.8 °F 100% 29.95 in 5.0 mi North 8.1 mph 13.8 mph N/A   Overcast
3:55 AM 51.8 °F 51.8 °F 100% 29.95 in 5.0 mi North 6.9 mph - N/A   Overcast
4:15 AM 51.8 °F 51.8 °F 100% 29.96 in 8.0 mi North 8.1 mph - N/A   Overcast
4:55 AM 51.8 °F 51.8 °F 100% 29.98 in 5.0 mi NNW 8.1 mph - N/A   Overcast
5:15 AM 51.8 °F 51.8 °F 100% 29.97 in 9.0 mi NNE 6.9 mph 13.8 mph N/A   Overcast
5:35 AM 51.8 °F 51.8 °F 100% 29.97 in 6.0 mi North 8.1 mph - N/A   Overcast
5:55 AM 51.8 °F 51.8 °F 100% 29.98 in 6.0 mi North 9.2 mph - N/A   Overcast
6:15 AM 51.8 °F 51.8 °F 100% 29.97 in 2.0 mi NNE 9.2 mph - N/A   Overcast
6:35 AM 51.8 °F 51.8 °F 100% 29.97 in 5.0 mi NNE 8.1 mph - N/A   Overcast
6:55 AM 51.8 °F 51.8 °F 100% 29.97 in 10.0 mi NNE 10.4 mph - 0.01 in   Overcast
7:15 AM 51.8 °F 51.8 °F 100% 29.99 in 10.0 mi Variable 5.8 mph 11.5 mph N/A   Overcast
7:35 AM 51.8 °F 51.8 °F 100% 29.98 in 10.0 mi NE 5.8 mph - N/A   Overcast
7:55 AM 51.8 °F 51.8 °F 100% 29.98 in 10.0 mi NE 6.9 mph - N/A   Overcast
8:15 AM 51.8 °F 51.8 °F 100% 29.98 in 10.0 mi NE 4.6 mph - N/A   Overcast
8:55 AM 51.8 °F 51.8 °F 100% 29.97 in 10.0 mi ENE 10.4 mph - N/A   Overcast
9:15 AM 51.8 °F 51.8 °F 100% 29.96 in 10.0 mi ENE 9.2 mph - N/A   Overcast
9:35 AM 51.8 °F 51.8 °F 100% 29.97 in 10.0 mi NE 4.6 mph - N/A   Overcast
9:55 AM 51.8 °F 51.8 °F 100% 29.99 in 9.0 mi North 6.9 mph - N/A   Overcast
10:15 AM 51.8 °F 51.8 °F 100% 29.98 in 4.0 mi NE 6.9 mph - N/A   Mostly Cloudy
10:35 AM 51.8 °F 51.8 °F 100% 29.97 in 2.5 mi NNE 5.8 mph - N/A   Scattered Clouds
10:55 AM 53.6 °F 53.6 °F 100% 29.98 in 10.0 mi NNE 8.1 mph - 0.04 in   Scattered Clouds
11:15 AM 53.6 °F 53.6 °F 100% 29.97 in 10.0 mi NE 8.1 mph - N/A   Mostly Cloudy
11:35 AM 53.6 °F 53.6 °F 100% 29.96 in 10.0 mi NE 8.1 mph - N/A   Mostly Cloudy
11:55 AM 53.6 °F 53.6 °F 100% 29.95 in 10.0 mi ENE 8.1 mph - N/A   Mostly Cloudy
12:15 PM 53.6 °F 53.6 °F 100% 29.96 in 5.0 mi NNE 4.6 mph - N/A   Mostly Cloudy
12:35 PM 53.6 °F 53.6 °F 100% 29.96 in 2.5 mi NNE 5.8 mph - N/A   Scattered Clouds
12:55 PM 53.6 °F 53.6 °F 100% 29.96 in 4.0 mi Calm Calm - 0.05 in   Scattered Clouds
1:15 PM 53.6 °F 53.6 °F 100% 29.96 in 8.0 mi NNW 3.5 mph - N/A   Scattered Clouds
1:35 PM 53.6 °F 53.6 °F 100% 29.96 in 8.0 mi NNW 5.8 mph - N/A   Scattered Clouds
1:55 PM 53.6 °F 53.6 °F 100% 29.95 in 9.0 mi North 3.5 mph - 0.01 in   Mostly Cloudy
2:15 PM 53.6 °F 53.6 °F 100% 29.95 in 3.0 mi North 4.6 mph - N/A   Mostly Cloudy
2:35 PM 53.6 °F 53.6 °F 100% 29.94 in 2.5 mi North 5.8 mph - N/A   Scattered Clouds
2:55 PM 53.6 °F 53.6 °F 100% 29.92 in 9.0 mi NNE 5.8 mph - N/A   Mostly Cloudy
3:15 PM 53.6 °F 53.6 °F 100% 29.92 in 9.0 mi NNE 5.8 mph - N/A   Overcast
3:35 PM 55.4 °F 55.4 °F 100% 29.92 in 9.0 mi North 4.6 mph - N/A   Mostly Cloudy
3:55 PM 55.4 °F 55.4 °F 100% 29.92 in 10.0 mi North 4.6 mph - N/A   Mostly Cloudy
4:35 PM 55.4 °F 55.4 °F 100% 29.94 in 9.0 mi NW 5.8 mph - N/A   Overcast
4:55 PM 55.4 °F 55.4 °F 100% 29.94 in 2.0 mi NW 4.6 mph - N/A   Overcast
5:15 PM 53.6 °F 53.6 °F 100% 29.94 in 1.8 mi NNW 4.6 mph - N/A   Mostly Cloudy
5:55 PM 55.4 °F 55.4 °F 100% 29.94 in 10.0 mi NW 8.1 mph - N/A   Overcast
6:15 PM 55.4 °F 55.4 °F 100% 29.94 in 8.0 mi WNW 8.1 mph - N/A   Overcast
6:35 PM 53.6 °F 53.6 °F 100% 29.95 in 9.0 mi NW 8.1 mph - N/A   Overcast
6:55 PM 55.4 °F 55.4 °F 100% 29.96 in 10.0 mi WNW 9.2 mph - N/A   Overcast
7:15 PM 53.6 °F 53.6 °F 100% 29.96 in 5.0 mi NW 11.5 mph - N/A   Overcast
7:35 PM 53.6 °F 53.6 °F 100% 29.97 in 2.5 mi NW 9.2 mph 17.3 mph N/A   Mostly Cloudy
7:55 PM 53.6 °F 53.6 °F 100% 29.98 in 10.0 mi NW 11.5 mph - N/A   Overcast
8:15 PM - - N/A% 29.99 in 10.0 mi WNW 10.4 mph 19.6 mph N/A   Overcast
8:35 PM 51.8 °F 51.8 °F 100% 30.00 in 10.0 mi NW 16.1 mph 21.9 mph N/A   Overcast
8:55 PM 51.8 °F 51.8 °F 100% 30.01 in 10.0 mi NW 10.4 mph - N/A   Overcast
9:15 PM 51.8 °F 51.8 °F 100% 30.02 in 10.0 mi NW 11.5 mph 17.3 mph N/A   Overcast
9:35 PM 51.8 °F 51.8 °F 100% 30.03 in 10.0 mi WNW 12.7 mph - N/A   Overcast
9:55 PM 51.8 °F 51.8 °F 100% 30.03 in 10.0 mi NW 11.5 mph 17.3 mph N/A   Overcast
10:15 PM 51.8 °F 51.8 °F 100% 30.03 in 10.0 mi NW 12.7 mph 21.9 mph N/A   Overcast
10:35 PM 50.0 °F 50.0 °F 100% 30.04 in 10.0 mi WNW 16.1 mph 25.3 mph N/A   Overcast
10:55 PM 50.0 °F 50.0 °F 100% 30.05 in 10.0 mi NW 17.3 mph 26.5 mph N/A   Overcast
11:15 PM 50.0 °F 48.2 °F 94% 30.05 in 10.0 mi NW 17.3 mph - N/A   Overcast
11:35 PM 50.0 °F 48.2 °F 94% 30.07 in 10.0 mi NW 18.4 mph 25.3 mph N/A   Overcast
11:55 PM 48.2 °F 48.2 °F 100% 30.07 in 10.0 mi NW 17.3 mph 26.5 mph N/A   Overcast